www.pogodaiklimat.ru

Погода и климат >> Архив погоды >> Россия >> Красноярский край >> Назимово


ПОГОДА в Назимово

  • Прогноз погоды в Назимово
  • Монитор погоды в Назимово

АРХИВ ПОГОДЫ в Назимово

Время (UTC), дата Ветер
(напр.,м/с)
 
Видим.   Явления Облачность Т
(С)
Тd
(С)
f
(%)
Тe
(С)
Тes
(С)
Комфортность P
(гПа)
Po
(гПа)
Тmin
(С)
Tmax
(С)
R
(мм)
R24
(мм)
S
(см)
00 14.09 СЗ 2 50 км 4/0 2000 м
[Ac As Ci fib]
+2.3 +0.4 87 -1 -1 1014.3 1006.0 +2.3
03 14.09 СЗ 2 50 км 10/10 1000 м
[Sc]
+4.9 +0.5 73 +2 +2 1015.7 1007.4 +1.4
06 14.09 Ю 1 50 км 10/10 1000 м
[Sc]
+7.2 +1.5 67 +7 +7 1015.3 1007.2
09 14.09 ЮВ 2 50 км 10/10 1000 м
[Sc]
+9.2 -0.4 51 +8 +8 1014.1 1006.0
12 14.09 ЮЗ 3 50 км 10/10 600 м
[Frnb]
+6.2 -0.3 63 +3 +3 1014.7 1006.5 +10.0
15 14.09 Ю 2 н/о {ливн. осадки} 10/10 600 м
[Cb cap]
+4.4 +1.9 84 +2 +2 1014.2 1005.9
18 14.09 ЮВ 2 н/о слаб. ливневой дождь 10/10 600 м
[Cb cap]
+3.4 +2.7 95 0 0 1012.4 1004.2
21 14.09 ЮВ 2 н/о слаб. ливневой дождь 10/10 600 м
[Cb cap]
+3.3 +3.1 99 0 0 1011.1 1002.9
00 15.09 штиль 0 4000 м слаб. морось 10/10 300 м
[St]
+3.4 +3.2 99 +2 +2 1011.1 1002.9 +3.0 0.5
03 15.09 СЗ 2 50 км {морось} 10/10 300 м
[St]
+4.3 +4.3 100 +1 +1 1011.6 1003.4
06 15.09 СЗ 1 50 км {морось} 9/9 600 м
[Cb cap]
+7.8 +3.9 76 +7 +8 1011.9 1003.8
09 15.09 С 1 50 км 4/3 1000 м
[Cu med, cong Ac cuf]
+8.8 +2.7 66 +8 +11 1012.7 1004.6
12 15.09 С 1 50 км 3/0 2000 м
[Ac trans]
+8.2 +2.2 66 +8 +8 1013.7 1005.6 +9.4 0.0
15 15.09 штиль 0 н/о ясно +0.5 -3.8 73 -0 -0 1015.6 1007.2
18 15.09 ЮЗ 1 н/о н/о 0.0 0.0 100
21 15.09 Ю 1 н/о 3/0 2000 м
[Ac trans]
-3.0 -5.7 82 -5 -5 1018.2 1009.7
00 16.09 Ю 1 20 км 10/0 2000 м
[Ac As]
-1.6 -2.4 94 -4 -4 1019.4 1011.0 -3.0
03 16.09 ЮВ 2 50 км 10/10 1000 м
[Cb cap]
+1.4 +0.6 94 -2 -2 1020.4 1012.0
06 16.09 ЮВ 3 50 км в посл. час ливневой дождь 10/1 600 м
[Cb cap Ac As]
+2.8 +2.0 94 -1 -0 1019.6 1011.3
09 16.09 ЮВ 3 50 км слаб. ливневой дождь 10/3 600 м
[Cb cap Ac As]
+4.6 +3.9 95 +1 +1 1018.2 1009.9
12 16.09 ЮВ 3 50 км слаб. ливневой дождь 10/10 600 м
[Cb cap]
+5.4 +4.9 97 +2 +2 1017.6 1009.4 +5.6 2
15 16.09 ЮВ 2 н/о 10/10 600 м
[Cb cap]
+6.6 +6.2 97 +4 +4 1017.7 1009.5
18 16.09 ЮВ 3 н/о 10/10 600 м
[Cb cap]
+6.4 +6.0 97 +3 +3 1017.4 1009.2
21 16.09 ЮВ 3 н/о слаб. морось 10/10 300 м
[St]
+6.0 +5.8 99 +3 +3 1016.9 1008.7
00 17.09 ЮВ 2 2000 м морось 10/10 300 м
[St]
+8.4 +8.4 100 +6 +6 1016.2 1008.1 0.5
03 17.09 ЮВ 3 4000 м дымка 10/10 300 м
[St]
+8.6 +8.6 100 +6 +6 1015.8 1007.7
06 17.09 ЮВ 2 10 км дымка 10/10 300 м
[St]
+10.4 +10.0 97 +9 +9 1014.6 1006.5
09 17.09 ЮВ 4 20 км 3/3 1000 м
[Cu med, cong Ac trans]
+16.6 +12.3 76 +16 +17 1012.5 1004.7
12 17.09 ЮВ 3 20 км 3/3 1000 м
[Cu med, cong]
+16.4 +12.4 77 +16 +16 1011.0 1003.2 +18.7 0.0
15 17.09 ЮВ 2 н/о слаб. ливневой дождь {гроза} 10/10 600 м
[Cb cap]
+12.9 +12.2 96 +12 +12 1011.2 1003.3
18 17.09 ЮВ 3 н/о {гроза, ливн. осадки} 9/0
[Ci fib]
+11.1 +10.7 97 +9 +9 1009.0 1001.0
21 17.09 ЮВ 2 н/о слаб. ливневой дождь со снегом 10/10 600 м
[Cb cap]
+11.1 +10.7 97 +10 +10 1008.3 1000.3
00 18.09 Ю 2 10 км слаб. ливневой дождь 10/10 600 м
[Cb cap]
+11.0 +10.8 99 +10 +10 1008.3 1000.3 +10.5 2
03 18.09 З 2 20 км {ливн. осадки} 10/10 600 м
[Cb cap]
+12.8 +10.7 87 +12 +12 1011.0 1003.1
06 18.09 ЮЗ 1 20 км {ливн. осадки} 10/10 600 м
[Cb cap]
+13.2 +9.7 79 +13 +13 1012.1 1004.2
09 18.09 З 3 50 км в посл. час гроза 3/3 600 м
[Cb cap]
+14.9 +9.1 68 +14 +16 1011.9 1004.0
12 18.09 ЮЗ 1 50 км гроза без осадков {ливн. осадки} 9/9 600 м
[Cb cap]
+13.8 +9.7 76 +14 +14 1013.0 1005.0 +16.1 3
15 18.09 ЮВ 2 н/о {гроза} 6/0
[Ac cast Ci fib]
+9.8 +9.4 97 +8 +8 1014.0 1005.9
18 18.09 ЮВ 2 н/о слаб. ливневой дождь {гроза} 10/10 600 м
[Cb cap]
+9.2 +9.0 99 +7 +7 1014.4 1006.3
21 18.09 ЮВ 2 н/о {ливн. осадки} 3/0
[Ac trans]
+7.6 +7.6 100 +5 +5 1014.3 1006.2
00 19.09 ЮВ 2 20 км {ливн. осадки} 10/10 300 м
[St]
+8.0 +8.0 100 +6 +6 1014.5 1006.4 +7.0 0.3
03 19.09 ЮВ 3 20 км 10/10 600 м
[Cb cap]
+10.3 +9.9 97 +8 +8 1013.4 1005.3
06 19.09 ЮВ 4 10 км слаб. ливневой дождь 10/10 600 м
[Cb cap]
+11.3 +10.5 95 +9 +9 1011.9 1003.9
09 19.09 ЮВ 3
{11}
10 км слаб. ливневой дождь 10/10 600 м
[Cb cap]
+14.1 +12.3 89 +13 +13 1009.2 1001.3
12 19.09 ЮВ 3 10 км слаб. ливневой дождь 10/10 300 м
[Cb cap]
+13.6 +13.1 97 +12 +12 1007.4 999.5 +14.6 2
15 19.09 ЮВ 2 н/о 10/10 600 м
[Cb cap]
+12.2 +11.8 97 +11 +11 1009.2 1001.2
18 19.09 ЮВ 2 н/о 10/10 600 м
[Cb cap]
+11.8 +11.4 97 +11 +11 1009.8 1001.8
21 19.09 ЮВ 2 н/о 10/10 600 м
[Cb cap]
+10.8 +10.6 99 +9 +9 1008.7 1000.7
00 20.09 ЮВ 3 20 км 10/0 2000 м
[Ac As Ci fib]
+10.4 +9.8 96 +8 +8 1006.9 998.9 +10.4 0.3
03 20.09 ЮВ 4 50 км 9/0
[Ac trans Cc]
+15.1 +11.4 79 +14 +16 1003.9 996.0 +10.2
06 20.09 ЮВ 5-10
{10}
50 км 9/0 2000 м
[Ac trans Ci fib]
+19.6 +11.9 61 +21 +23 комфорт 999.7 992.0
09 20.09 Ю 6-12
{13}
50 км 10/4 600 м
[Cb cap Ac lent]
+23.8 +9.0 39 +25 +25 комфорт 996.1 988.5
12 20.09 ЮЗ 3
{12}
20 км гроза без осадков {ливн. осадки} 9/9 600 м
[Cb cap]
+19.0 +12.6 66 +20 +20 995.9 988.2 +24.2 0.8
15 20.09 ЮЗ 7-12
{14}
н/о {гроза} ясно +16.6 +2.8 40 +15 +15 998.0 990.2
18 20.09 З 5 н/о {гроза} 3/3 1000 м
[Sc]
+14.9 +3.2 45 +14 +14 1005.2 997.3

 

Местоположение метеостанции Назимово (Красноярский край, Россия): широта 59.50 долгота 91.02 высота над уровнем моря 67 м.

В архиве по умолчанию представлена погода в Назимово за последнюю неделю. Архивные данные за месяц целиком и за предыдущие месяцы, начиная с января 2011 года, Вы можете получить, выбрав интересующий диапазон дат из раскрывающегося списка и нажав кнопку "Ввод!".


*Определитесь, кто Вы:
робот инопланетянин человек

Внимание! Время в таблицах - всемирное. Для получения местного времени необходимо прибавить поправку, которая равна 7 ч.

Смотрите также архив погоды в соседних городах и на ближайших метеорологических станциях:

Погода в Ярцево (Красноярский край, Россия) (97 км)
Погода в Александровском Шлюзе (Красноярский край, Россия) (98 км)
Погода в Енисейске (Красноярский край, Россия) (134 км)
Погода в Северо-Енисейском (Красноярский край, Россия) (149 км)
Погода в Лосиноборске (Красноярский край, Россия) (152 км)
Погода в Сыме (Красноярский край, Россия) (175 км)
Погода в Ворогово (Красноярский край, Россия) (187 км)
Погода в Стрелке (Красноярский край, Россия) (195 км)
Погода в Усть-Озерном (Томская область, Россия) (199 км)
Погода в Вельмо (Красноярский край, Россия) (215 км)

Пояснения к столбцам:

Ветер - указаны скорость ветра в м/с - средняя за 10 мин, порывы в срок и между сроками (в фигурных скобках) и направление, откуда дует ветер: С - северный, СВ - северо-восточный, В - восточный, ЮВ - юго-восточный, Ю - южный, ЮЗ - юго-западный, З - западный, СЗ - северо-западный.
Видимость - горизонтальная дальность видимости в метрах или километрах. При видимости от 1 до 10 км при отсутствии осадков обычно наблюдается дымка, при ухудшении видимости до 1 км и менее - туман. В сухую погоду видимость может ухудшаться дымом, пылью или мглою.
Явления - указаны атмосферные явления, наблюдавшиеся в срок или в последний час перед сроком; фигурными скобками обозначены явления, наблюдавшиеся между сроками (за 1-3 часа до срока); квадратными скобками обозначены град или гололедные отложения с указанием их диаметра в мм.
Облачность - указаны через наклонную черту общая и нижняя облачность в баллах и высота нижней границы облаков в метрах; квадратными скобками обозначены формы облаков: Ci - перистые, Cs - перисто-слоистые, Cc - перисто-кучевые, Ac - высококучевые, As - высокослоистые, Sc - слоисто-кучевые, Ns - слоисто-дождевые, Cu - кучевые, Cb - кучево-дождевые. Подробнее классификацию облаков см. в Атласе облаков (PDF).
T - Температура воздуха - температура, измеренная на высоте 2 м над землей.
Td - Температура точки росы - температура, при понижении до которой содержащийся в воздухе водяной пар достигнет насыщения.
f - Относительная влажность воздуха - влажноcть воздуха, измеренная на высоте 2 м над землей.
Te - Эффективная температура - температура, которую ощущает одетый по сезону человек в тени. Характеристика душности погоды. При расчете учитывается влияние влажности воздуха и скорости ветра на теплоощущения человека.
Tes - Эффективная температура на солнце - температура, которую ощущает человек, с поправкой на солнечный нагрев. Характеристика знойности погоды. Зависит от высоты солнца над горизонтом, облачности и скорости ветра. Ночью, в пасмурную погоду, а также при ветре 12 м/с и более поправка равна нулю.
P - Атмосферное давление - приведенное к уровню моря атмосферное давление.
Po - Атмосферное давление - измеренное на уровне метеостанции атмосферное давление.
Tmin - Минимальная температура - минимум температуры воздуха на высоте 2 м над землей.
Tmax - Максимальная температура - максимум температуры воздуха на высоте 2 м над землей.
R - Количество осадков - Количество выпавших осадков за период времени, мм. При наведении курсора мыши на число - период времени, за который выпало указанное количество осадков.
R24 - Количество осадков - Количество выпавших осадков за 24 часа, мм.
S - Снежный покров - Высота снежного покрова, см. При наведении курсора мыши на число - состояние снежного покрова и степень покрытия местности в баллах.